Fort Smith, AR

10:42 AM CDT on March 27, 2017 (GMT -0500)
Fort Smith Regional

Weather History for KFSM - January, 2015

Change the Weather History Date:

Thursday, January 8, 2015

  Actual Average Record
Temperature  
Mean Temperature 23 °F 39 °F  
Max Temperature 36 °F 49 °F 76 °F (1969)
Min Temperature 9 °F 29 °F -7 °F (1886)
Degree Days  
Heating Degree Days 42 26  
Month to date heating degree days 253 208  
Since 1 July heating degree days 1531 1507  
Moisture  
Dew Point 4 °F    
Average Humidity 48    
Maximum Humidity 73    
Minimum Humidity 23    
Precipitation  
Precipitation 0.00 in 0.08 in 2.04 in (1889)
Month to date precipitation 1.58 0.71  
Year to date precipitation 1.58 0.71  
Sea Level Pressure  
Sea Level Pressure 30.51 in    
Wind  
Wind Speed 5 mph (SSW)    
Max Wind Speed 16 mph    
Max Gust Speed 22 mph    
Visibility 10 miles    
Events      
T = Trace of Precipitation, MM = Missing Value Source: NWS Daily Summary

Daily Weather History Graph

Daily Weather History Graph

Search for Another Location

Airport or City:

Trip Planner

Search our weather history database for the weather conditions in past years. The results will help you decide how hot, cold, wet, or windy it might be!

Date:

Astronomy

Jan. 08, 2015 Rise Set
Actual Time 7:26 AM CST 5:21 PM CST
Civil Twilight 6:58 AM CST 5:49 PM CST
Nautical Twilight 6:27 AM CST 6:21 PM CST
Astronomical Twilight 5:56 AM CST 6:51 PM CST
Moon 8:53 PM CST (1/8) 9:20 AM CST (1/8)
Length of Visible Light 10h 50m
Length of Day
9h 54m
Waning Gibbous, 89% of the Moon is Illuminated
Jan 8
Waning Gibbous
Jan 13
Last Quarter
Jan 20
New
Jan 26
First Quarter
Feb 3
Full

Hourly Weather History & Observations

Time (CST) Temp. Windchill Dew Point Humidity Pressure Visibility Wind Dir Wind Speed Gust Speed Precip Events Conditions
12:53 AM 12.9 °F 5.2 °F -0.9 °F 54% 30.87 in 10.0 mi North 4.6 mph - N/A   Clear
1:53 AM 12.9 °F 6.9 °F -0.0 °F 56% 30.83 in 10.0 mi NNE 3.5 mph - N/A   Clear
2:53 AM 12.0 °F 5.9 °F -0.0 °F 59% 30.81 in 10.0 mi ENE 3.5 mph - N/A   Clear
3:53 AM 12.0 °F - 1.0 °F 61% 30.76 in 10.0 mi Calm Calm - N/A   Clear
4:53 AM 10.9 °F - 1.9 °F 67% 30.73 in 10.0 mi Calm Calm - N/A   Clear
5:53 AM 10.9 °F - 3.0 °F 70% 30.70 in 10.0 mi Calm Calm - N/A   Clear
6:53 AM 10.0 °F - 1.9 °F 70% 30.69 in 10.0 mi Calm Calm - N/A   Clear
7:53 AM 12.0 °F 2.7 °F 3.9 °F 70% 30.66 in 10.0 mi East 5.8 mph - N/A   Clear
8:53 AM 15.1 °F 3.3 °F 3.0 °F 59% 30.63 in 10.0 mi SE 9.2 mph - N/A   Clear
9:53 AM 18.0 °F 9.8 °F 1.0 °F 48% 30.59 in 10.0 mi Variable 5.8 mph - N/A   Clear
10:53 AM 21.9 °F 12.5 °F 1.0 °F 40% 30.53 in 10.0 mi SSE 8.1 mph - N/A   Clear
11:53 AM 26.1 °F 21.9 °F 3.0 °F 37% 30.47 in 10.0 mi Variable 3.5 mph - N/A   Clear
12:53 PM 30.0 °F 24.1 °F 1.9 °F 30% 30.40 in 10.0 mi Variable 5.8 mph - N/A   Clear
1:53 PM 34.0 °F 27.2 °F 1.9 °F 26% 30.35 in 10.0 mi SSW 8.1 mph - N/A   Clear
2:53 PM 36.0 °F 28.0 °F 1.9 °F 24% 30.31 in 10.0 mi SW 11.5 mph - N/A   Clear
3:53 PM 34.0 °F 24.6 °F 1.9 °F 26% 30.27 in 10.0 mi South 13.8 mph - N/A   Clear
4:53 PM 34.0 °F 26.0 °F 1.9 °F 26% 30.27 in 10.0 mi WSW 10.4 mph - N/A   Clear
5:53 PM 30.9 °F 24.3 °F 3.9 °F 32% 30.29 in 10.0 mi SW 6.9 mph - N/A   Clear
6:53 PM 27.0 °F 21.6 °F 7.0 °F 43% 30.32 in 10.0 mi SW 4.6 mph - N/A   Clear
7:53 PM 27.0 °F 21.6 °F 10.0 °F 49% 30.34 in 10.0 mi WSW 4.6 mph - N/A   Clear
8:53 PM 27.0 °F 21.6 °F 10.9 °F 51% 30.35 in 10.0 mi SSW 4.6 mph - N/A   Clear
9:53 PM 26.1 °F 21.9 °F 10.9 °F 53% 30.36 in 10.0 mi WNW 3.5 mph - N/A   Clear
10:53 PM 26.1 °F 21.9 °F 12.0 °F 55% 30.36 in 10.0 mi WSW 3.5 mph - N/A   Clear
11:53 PM 25.0 °F - 12.0 °F 58% 30.37 in 10.0 mi Calm Calm - N/A   Clear